Location: Grantsboro
(35.1404°N, 76.8424°W)
Time: 23:59:47
(UTC+00:00)

Cosmos 1269 Rocket - Pass Details

Date: 18 January 2020
Orbit: 773 x 779 km, 74.1° (Epoch: 23 February)

Event Time Altitude Azimuth Distance (km) Brightness Sun altitude
Rises 00:06:28 0° 345° (NNW) 3,254 7.3 -21.4°
Reaches altitude 10° 00:08:53 10° 348° (NNW) 2,324 6.5 -21.9°
Maximum altitude 00:14:08 70° 71° (ENE) 824 3.9 -23.0°
Enters shadow 00:17:08 26° 150° (SSE) 1,485 5.3 -23.6°
